Change the Weather History Date:

Sunday, March 31, 2013

  Actual Average (PAKU) Record (PAKU)
Temperature  
Mean Temperature -4 °F -  
Max Temperature 0 °F -1 °F 19 °F (2008)
Min Temperature -7 °F -12 °F -38 °F (1985)
Degree Days  
Heating Degree Days 68    
Moisture  
Dew Point -7 °F    
Average Humidity 85    
Maximum Humidity 92    
Minimum Humidity 78    
Precipitation  
Precipitation 0.00 in - - ()
Sea Level Pressure  
Sea Level Pressure 30.37 in    
Wind  
Wind Speed 10 mph (ENE)    
Max Wind Speed 15 mph    
Max Gust Speed -    
Visibility 9 miles    
Events      
Averages and records for this station are not official NWS values.
T = Trace of Precipitation, MM = Missing Value Source: NWS Daily Summary

Daily Weather History Graph

Daily Weather History Graph

Search for Another Location

Airport or City:

Trip Planner

Search our weather history database for the weather conditions in past years. The results will help you decide how hot, cold, wet, or windy it might be!

Date:

Astronomy

Mar. 31, 2013 Rise Set
Actual Time 7:08 AM AKDT 9:09 PM AKDT
Civil Twilight 6:02 AM AKDT 10:17 PM AKDT
Nautical Twilight 4:25 AM AKDT 11:57 PM AKDT
Astronomical Twilight Sun does not rise Sun does not rise
Moon No Moon Rise No Moon Set
Length of Visible Light 16h 14m
Length of Day
14h 01m
Waning Gibbous, 76% of the Moon is Illuminated
Mar 31
Waning Gibbous
Apr 2
Last Quarter
Apr 10
New
Apr 18
First Quarter
Apr 25
Full

Hourly Weather History & Observations

Time (AKDT) Temp. Windchill Dew Point Humidity Pressure Visibility Wind Dir Wind Speed Gust Speed Precip Events Conditions
12:53 AM -4.0 °F - -8.0 °F 83% 30.31 in 10.0 mi North - - N/A   Overcast
1:45 AM -4.0 °F -21.2 °F -7.6 °F 85% 30.31 in 10.0 mi East 10.4 mph - N/A   Overcast
1:53 AM -2.9 °F -19.8 °F -7.1 °F 82% 30.31 in 10.0 mi East 10.4 mph - N/A   Overcast
2:53 AM -4.0 °F -21.2 °F -7.1 °F 87% 30.32 in 10.0 mi East 10.4 mph - N/A   Overcast
3:53 AM -4.0 °F -19.0 °F -7.1 °F 87% 30.32 in 10.0 mi ENE 8.1 mph - N/A   Overcast
4:53 AM -2.9 °F -17.7 °F -6.0 °F 87% 30.33 in 5.0 mi East 8.1 mph - N/A   Overcast
5:53 AM -2.9 °F -18.8 °F -6.0 °F 87% 30.33 in 9.0 mi ENE 9.2 mph - N/A   Overcast
6:53 AM -2.9 °F -17.7 °F -6.0 °F 87% 30.33 in 5.0 mi ENE 8.1 mph - N/A   Overcast
7:53 AM -4.0 °F -19.0 °F -7.1 °F 87% 30.34 in 9.0 mi ENE 8.1 mph - N/A   Overcast
8:53 AM -2.9 °F -17.7 °F -6.0 °F 87% 30.34 in 7.0 mi ENE 8.1 mph - N/A   Overcast
9:53 AM -4.0 °F -19.0 °F -8.0 °F 83% 30.35 in 8.0 mi ENE 8.1 mph - N/A   Overcast
10:53 AM -4.0 °F -20.2 °F -7.1 °F 87% 30.35 in 10.0 mi ENE 9.2 mph - N/A   Overcast
11:11 AM -4.0 °F -21.2 °F -7.6 °F 85% 30.35 in 10.0 mi ENE 10.4 mph - N/A   Overcast
11:22 AM -2.2 °F -18.9 °F -7.6 °F 78% 30.35 in 10.0 mi ENE 10.4 mph - N/A   Overcast
11:53 AM -2.9 °F -19.8 °F -6.0 °F 87% 30.36 in 10.0 mi ENE 10.4 mph - N/A   Overcast
12:04 PM -2.2 °F -19.9 °F -7.6 °F 78% 30.36 in 9.0 mi ENE 11.5 mph - N/A   Overcast
12:53 PM -2.0 °F -21.2 °F -6.0 °F 83% 30.37 in 10.0 mi East 13.8 mph - N/A   Mostly Cloudy
1:53 PM -0.9 °F -19.1 °F -5.1 °F 83% 30.37 in 10.0 mi East 12.7 mph - N/A   Overcast
2:53 PM -0.9 °F -20.6 °F -5.1 °F 83% 30.38 in 10.0 mi East 15.0 mph - N/A   Partly Cloudy
3:53 PM -0.0 °F -19.4 °F -5.1 °F 79% 30.38 in 10.0 mi East 15.0 mph - N/A   Clear
4:53 PM -0.0 °F -16.3 °F -4.0 °F 83% 30.39 in 10.0 mi ENE 10.4 mph - N/A   Clear
5:36 PM -0.4 °F -18.4 °F -4.0 °F 85% 30.38 in 10.0 mi ENE 12.7 mph - 0.00 in   Partly Cloudy
5:53 PM -0.9 °F -18.3 °F -5.1 °F 83% 30.39 in 10.0 mi ENE 11.5 mph - 0.00 in   Clear
6:53 PM -2.0 °F -18.7 °F -6.0 °F 83% 30.40 in 10.0 mi ENE 10.4 mph - N/A   Clear
7:53 PM -4.0 °F -19.0 °F -7.1 °F 87% 30.40 in 10.0 mi NE 8.1 mph - N/A   Clear
8:53 PM -6.0 °F -21.5 °F -9.0 °F 87% 30.41 in 10.0 mi ENE 8.1 mph - N/A   Clear
9:37 PM -7.6 °F -23.4 °F -9.4 °F 92% 30.42 in 10.0 mi NE 8.1 mph - N/A   Mostly Cloudy
9:53 PM -5.1 °F -20.4 °F -8.0 °F 87% 30.42 in 10.0 mi NE 8.1 mph - N/A   Overcast
10:53 PM -5.1 °F -20.4 °F -7.1 °F 91% 30.43 in 10.0 mi ENE 8.1 mph - N/A   Overcast
11:01 PM -5.8 °F -21.2 °F -7.6 °F 92% 30.43 in 10.0 mi NE 8.1 mph - N/A   Overcast
11:32 PM -4.0 °F -19.0 °F -7.6 °F 85% 30.43 in 10.0 mi NE 8.1 mph - N/A   Overcast
11:53 PM -5.1 °F -21.5 °F -7.1 °F 91% 30.44 in 10.0 mi ENE 9.2 mph - N/A   Overcast